User: anonymous   Login
Location: Unspecified
(0.0000°N, 0.0000°E)
Time: 12:36:26
(UTC+00:00)
Language:

Himawari - Orbit

View from above orbital plane
View from above orbital plane
View from above satellite
View from above satellite

Ground track
Ground track

The orbit data is extracted from the following two-line orbital elements,

1 10143U 77065A   21015.58377081 -.00000042  00000-0  00000-0 0  9999
2 10143  11.1053 312.2940 0015059 186.2645  20.8369  0.99251357101589
Epoch (UTC): 15 January 2021 14:00:37
Eccentricity: 0.0015059
inclination: 11.1053°
perigee height: 36011 km
apogee height: 36138 km
right ascension of ascending node: 312.2940°
argument of perigee: 186.2645°
revolutions per day: 0.99251357
mean anomaly at epoch: 20.8369°
orbit number at epoch: 10158

The dashed part of the orbit path shows where the satellite is in the earth's shadow,  

DLR